Regional Weather Roundup
Issued by NWS

Home | Current Version | Previous Version | Graphics & Text | Print | Product List | Glossary On
Versions: 1 2 3 4 5 6 7 8 9 10 11 12 13 14 15 16 17 18 19 20 21 22 23 24 25 26 27
000
ASUS45 KSLC 211510
RWRUT

UTAH REGIONAL WEATHER ROUNDUP
NATIONAL WEATHER SERVICE SALT LAKE CITY UT
900 AM MDT SAT OCT 21 2017

UTZ001>011-023>025-211600-

NORTHERN UTAH

CITY           SKY/WX    TMP DP  RH WIND       PRES   REMARKS
BRIGHAM CITY   MOSUNNY   33  26  73 CALM      30.18R
HILL AFB       SUNNY     37  28  70 S6        30.17R WCI  33
LOGAN          SUNNY     29  25  85 CALM      30.15R
OGDEN          SUNNY     37  29  72 S5        30.17R WCI  33
SALT LAKE CITY MOSUNNY   42  32  67 SE3       30.19R
TOOELE VALLEY  SUNNY     34  25  69 S10       30.21R WCI  26
WENDOVER       PTSUNNY   38  21  50 CALM      30.21R
WEST JORDAN    SUNNY     37  27  68 SE3       30.20R

$$

UTZ011>015-024>027-211600-

CENTRAL/NORTHEAST UTAH

CITY           SKY/WX    TMP DP  RH WIND       PRES   REMARKS
PROVO AIRPORT  MOSUNNY   36  28  73 S6        30.21R WCI  31
MOAB/CANYONLAN SUNNY     41  18  39 NE8       30.13R
DELTA          SUNNY     30  21  69 CALM      30.21R
PRICE          SUNNY     38  20  48 NW10G20   30.16R WCI  31
ROOSEVELT      SUNNY     36  19  51 E5        30.15R WCI  32
VERNAL         SUNNY     36  17  46 NW3       30.13R

$$

UTZ013>016-019>022-027-211600-

SOUTHERN UTAH

CITY           SKY/WX    TMP DP  RH WIND       PRES   REMARKS
BRYCE CANYON   SUNNY     26  15  63 CALM      30.18R
CEDAR CITY     MOSUNNY   28  18  66 CALM      30.18R
MILFORD        SUNNY     26  14  60 SE5       30.20R WCI  20
ST GEORGE      SUNNY     51  16  24 SE5       30.15R
HANKSVILLE     SUNNY     37  19  48 CALM      30.20R
BLANDING         N/A     42  10  26 NW3       30.19R

$$

REGIONAL REPORTS     COLORADO/ARIZONA

CITY           SKY/WX    TMP DP  RH WIND       PRES   REMARKS
CRAIG, CO      CLOUDY    22  19  89 SE5       30.13R WCI  16
GRAND JUNCTION SUNNY     41  19  41 N6        30.12R
RIFLE, CO      SUNNY     37  28  70 NE3       30.14R
MONTROSE, CO   SUNNY     38  17  42 SE3       30.14R
CORTEZ, CO     SUNNY     42  13  30 CALM      30.10R
COLORADO CITY    N/A     36  19  51 CALM      30.18R
PAGE, AZ       SUNNY     50  18  28 N3        30.13R
GRAND CANYON   SUNNY     35  24  64 CALM      30.15R
KINGMAN, AZ    SUNNY     52  16  24 E10       30.10R
FLAGSTAFF, AZ  SUNNY     44  28  53 VRB5      30.14R

$$

REGIONAL REPORTS    NEVADA/IDAHO/WYOMING

CITY           SKY/WX    TMP DP  RH WIND       PRES   REMARKS
LAS VEGAS, NV  MOSUNNY   60  15  17 N9        30.12R
ELY, NY        MOSUNNY   19  11  70 S10       30.24R WCI   7
ELKO, NV       CLEAR     24  19  81 CALM      30.20R
POCATELLO, ID  MOSUNNY   35  26  69 SW14      30.15R WCI  26
BURLEY, ID     SUNNY     35  26  69 SW12      30.16R WCI  27
FORT BRIDGER,    N/A     29  22  76 SW15      30.14R WCI  17
EVANSTON, WY   SUNNY     28  23  81 SW15      30.12R WCI  16
ROCK SPRINGS,  SUNNY     28  18  66 SW20      30.09R WCI  15

$$




USA.gov is the U.S. government's official web portal to all federal, state and local government web resources and services.